Powrót do katalogu

THORAD DELTA 1 DEB

AktywnyLEO
NORAD 9989·DEBRIS·🇺🇸 United States

Wystrzelony Nov 15, 1974 z Vandenberg Space Force Base

Loading…

Następne Przeloty (najbliższe 24 godziny)

TLE

ŚwieżeSource: Space-Track

Epoka: Sep 14, 2026, 06:41 UTC

1 09989U 74089EG  26257.27867959  .00000785  00000-0  53639-2 0  9996
2 09989 103.0572 182.9885 0137752 204.9064 309.8782 12.49303716312623

Śledź THORAD DELTA 1 DEB w czasie rzeczywistym z AllMySat

Download on the App Store